KJ6GEA Weather Reports


time (UTC)temp
F
wind
direction
speed
knots
gust
knots
rain 1hr
in
rain 24hr
in
rain mn
in
humidity
%
barometer
mb
20260503210126 65 229 5.2 13.9 0.00 0.00 0.00 63 1013.2
20260503205624 65 188 4.3 10.4 0.00 0.00 0.00 64 1013.2
20260503205123 66 229 4.3 12.2 0.00 0.00 0.00 63 1013.2
20260503204625 65 178 5.2 12.2 0.00 0.00 0.00 65 1013.2
20260503204122 64 255 5.2 15.6 0.00 0.00 0.00 66 1013.2
20260503203630 64 259 6.1 12.2 0.00 0.00 0.00 68 1013.3
20260503203622 64 180 5.2 15.6 0.00 0.00 0.00 65 1013.2
20260503203123 65 247 5.2 12.2 0.00 0.00 0.00 68 1013.3
20260503202120 64 202 6.1 13.9 0.00 0.00 0.00 67 1013.3
20260503201618 63 295 6.1 13.9 0.00 0.00 0.00 68 1013.2
20260503201117 63 232 5.2 13.9 0.00 0.00 0.00 67 1013.2
20260503200618 64 203 4.3 11.3 0.00 0.00 0.00 67 1013.2
20260503200116 64 219 4.3 12.2 0.00 0.00 0.00 67 1013.2
20260503195616 64 236 5.2 13.0 0.00 0.00 0.00 69 1013.2
20260503195116 63 229 5.2 13.0 0.00 0.00 0.00 67 1013.2
20260503194615 64 200 4.3 13.0 0.00 0.00 0.00 66 1013.2
20260503194113 64 143 4.3 11.3 0.00 0.00 0.00 67 1013.2
20260503193615 64 176 5.2 12.2 0.00 0.00 0.00 66 1013.2
20260503193111 64 205 5.2 12.2 0.00 0.00 0.00 66 1013.2
20260503192620 63 243 5.2 11.3 0.00 0.00 0.00 68 1013.2
20260503192613 64 198 5.2 12.2 0.00 0.00 0.00 67 1013.2
20260503191609 63 232 4.3 11.3 0.00 0.00 0.00 67 1013.2
20260503191109 63 235 4.3 11.3 0.00 0.00 0.00 68 1013.2
20260503190610 64 234 4.3 10.4 0.00 0.00 0.00 68 1013.2
20260503190109 63 234 3.5 10.4 0.00 0.00 0.00 68 1013.2
20260503185608 63 243 2.6 7.8 0.00 0.00 0.00 68 1013.2
20260503185107 63 212 3.5 9.6 0.00 0.00 0.00 68 1013.2
20260503184608 63 240 3.5 9.6 0.00 0.00 0.00 66 1013.2
20260503184106 64 248 2.6 11.3 0.00 0.00 0.00 68 1013.2
20260503183610 62 247 3.5 12.2 0.00 0.00 0.00 69 1013.2
20260503183604 62 252 3.5 12.2 0.00 0.00 0.00 69 1013.2
20260503182603 63 229 2.6 8.7 0.00 0.00 0.00 69 1013.2
20260503182102 63 281 2.6 9.6 0.00 0.00 0.00 72 1013.2
20260503181602 63 240 3.5 12.2 0.00 0.00 0.00 69 1013.0
20260503181110 64 240 3.5 10.4 0.00 0.00 0.00 68 1013.0
20260503181101 64 270 3.5 12.2 0.00 0.00 0.00 67 1013.0
20260503180100 64 189 3.5 10.4 0.00 0.00 0.00 68 1012.8
20260503175607 62 172 3.5 9.6 0.00 0.00 0.00 69 1012.8
20260503175600 63 302 3.5 9.6 0.00 0.00 0.00 71 1012.8
20260503174557 62 232 4.3 10.4 0.00 0.00 0.00 71 1012.7
20260503174057 62 237 4.3 11.3 0.00 0.00 0.00 72 1012.7
20260503173558 63 169 4.3 11.3 0.00 0.00 0.00 72 1012.7
20260503173057 62 162 3.5 10.4 0.00 0.00 0.00 75 1012.7
20260503172559 60 229 2.6 7.0 0.00 0.00 0.00 78 1012.7
20260503172552 61 226 2.6 7.8 0.00 0.00 0.00 78 1012.7
20260503171554 60 157 3.5 8.7 0.00 0.00 0.00 80 1012.7
20260503171052 60 210 4.3 8.7 0.00 0.00 0.00 79 1012.7
20260503170551 60 141 4.3 10.4 0.00 0.00 0.00 82 1012.7
20260503151014 55 229 0.9 4.3 0.00 0.00 0.00 89 1012.2
20260503150507 55 270 0.9 4.3 0.00 0.00 0.00 89 1012.2
20260503150500 55 271 1.7 4.3 0.00 0.00 0.00 88 1012.1
20260503131253 55 160 0.9 2.6 0.00 0.00 0.00 87 1010.7
20260503130753 55 148 0.9 2.6 0.00 0.00 0.00 87 1010.7
20260503130258 55 220 0.9 3.5 0.00 0.00 0.00 86 1010.6
20260503130251 55 220 0.9 3.5 0.00 0.00 0.00 87 1010.6
20260503110536 55 218 0.9 2.6 0.00 0.00 0.00 85 1010.8
20260503090359 55 297 0.0 2.6 0.00 0.00 0.00 83 1011.2
20260503081324 56 233 0.9 4.3 0.00 0.00 0.00 82 1011.7
20260503080830 56 188 0.0 2.6 0.00 0.00 0.00 82 1011.8
20260503080823 56 245 0.9 3.5 0.00 0.00 0.00 82 1011.7
20260503072725 55 260 0.0 1.7 0.00 0.00 0.00 81 1011.8
20260503072719 55 260 0.0 0.9 0.00 0.00 0.00 81 1011.8
20260503071651 55 260 0.0 1.7 0.00 0.00 0.00 81 1011.9
20260503071148 55 260 0.0 1.7 0.00 0.00 0.00 82 1011.9
20260503070858 55 270 0.0 2.6 0.00 0.00 0.00 81 1012.0
20260503070745 55 269 0.0 1.7 0.00 0.00 0.00 82 1012.0
20260503070647 55 260 0.0 1.7 0.00 0.00 0.00 81 1011.9
20260503070632 55 269 0.0 1.7 0.00 0.00 0.00 81 1012.0
20260503054939 55 230 1.7 6.1 0.00 0.00 0.00 80 1012.3
20260503054438 56 242 0.9 3.5 0.00 0.00 0.00 80 1012.3
20260503053935 56 231 0.9 4.3 0.00 0.00 0.00 80 1012.3
20260503053430 56 250 0.9 4.3 0.00 0.00 0.00 80 1012.5
20260503052928 56 214 0.9 3.5 0.00 0.00 0.00 81 1012.5
20260503052425 56 287 1.7 4.3 0.00 0.00 0.00 80 1012.5
20260503051920 56 236 1.7 5.2 0.00 0.00 0.00 81 1012.6
20260503051418 56 231 1.7 5.2 0.00 0.00 0.00 80 1012.6
20260503050920 56 250 1.7 4.3 0.00 0.00 0.00 80 1012.6
20260503050401 56 288 1.7 4.3 0.00 0.00 0.00 80 1012.4
20260503045900 56 240 1.7 4.3 0.00 0.00 0.00 80 1012.4
20260503045400 56 249 1.7 5.2 0.00 0.00 0.00 80 1012.4
20260503044857 56 248 1.7 5.2 0.00 0.00 0.00 80 1012.4
20260503044349 56 232 1.7 5.2 0.00 0.00 0.00 80 1012.4
20260503043846 56 270 1.7 6.1 0.00 0.00 0.00 80 1012.4
20260503043346 56 288 0.9 6.1 0.00 0.00 0.00 81 1012.3
20260503042857 56 271 0.9 4.3 0.00 0.00 0.00 81 1012.3
20260503042347 56 287 1.7 4.3 0.00 0.00 0.00 81 1012.3
20260503041846 56 270 1.7 7.8 0.00 0.00 0.00 81 1012.2
20260503041339 56 251 1.7 7.8 0.00 0.00 0.00 81 1012.2
20260503040839 56 215 1.7 6.1 0.00 0.00 0.00 81 1012.2
20260503040337 56 233 2.6 6.1 0.00 0.00 0.00 80 1012.2
20260503035837 56 293 1.7 6.1 0.00 0.00 0.00 80 1012.2
20260503035336 56 230 1.7 6.1 0.00 0.00 0.00 80 1012.2
20260503034838 56 240 1.7 7.8 0.00 0.00 0.00 80 1012.2
20260503034336 56 238 1.7 7.8 0.00 0.00 0.00 80 1012.2
20260503033833 56 311 1.7 5.2 0.00 0.00 0.00 80 1012.2
20260503033333 56 233 1.7 5.2 0.00 0.00 0.00 80 1012.2
20260503032834 56 273 1.7 5.2 0.00 0.00 0.00 80 1012.2
20260503032330 56 251 1.7 4.3 0.00 0.00 0.00 80 1012.2
20260503031830 56 249 1.7 7.0 0.00 0.00 0.00 80 1011.8
20260503031327 56 257 1.7 7.0 0.00 0.00 0.00 79 1011.8
20260503030827 56 262 1.7 6.1 0.00 0.00 0.00 79 1011.8
20260503030327 56 303 1.7 6.1 0.00 0.00 0.00 79 1011.7
20260503025832 56 247 0.9 4.3 0.00 0.00 0.00 78 1011.7
20260503025827 56 267 0.9 4.3 0.00 0.00 0.00 79 1011.7
20260503024833 57 257 1.7 6.1 0.00 0.00 0.00 77 1011.7
20260503024827 56 260 1.7 4.3 0.00 0.00 0.00 78 1011.7
20260503023820 57 227 1.7 5.2 0.00 0.00 0.00 77 1011.7
20260503023813 57 236 1.7 6.1 0.00 0.00 0.00 77 1011.7
20260503022812 57 250 1.7 4.3 0.00 0.00 0.00 76 1011.7
20260503022311 57 276 2.6 8.7 0.00 0.00 0.00 76 1011.7
20260503021812 57 205 2.6 8.7 0.00 0.00 0.00 76 1011.7
20260503021308 58 245 2.6 7.0 0.00 0.00 0.00 75 1011.7
20260503020807 58 258 2.6 10.4 0.00 0.00 0.00 75 1011.7
20260503020311 58 319 2.6 8.7 0.00 0.00 0.00 75 1011.9
20260503020307 58 244 2.6 10.4 0.00 0.00 0.00 75 1011.9
20260503015305 58 284 2.6 7.8 0.00 0.00 0.00 75 1011.9
20260503014803 58 236 3.5 8.7 0.00 0.00 0.00 75 1011.9
20260503014304 58 239 2.6 8.7 0.00 0.00 0.00 75 1011.9
20260503013804 59 240 3.5 10.4 0.00 0.00 0.00 75 1011.9
20260503013305 58 266 5.2 13.0 0.00 0.00 0.00 75 1012.1
20260503012801 58 272 5.2 13.0 0.00 0.00 0.00 74 1012.1
20260503012300 58 236 5.2 12.2 0.00 0.00 0.00 75 1012.1
20260503011759 59 199 5.2 11.3 0.00 0.00 0.00 74 1012.2
20260503011300 59 285 5.2 11.3 0.00 0.00 0.00 74 1012.2
20260503010805 59 233 5.2 11.3 0.00 0.00 0.00 73 1012.2
20260503010759 59 204 5.2 11.3 0.00 0.00 0.00 74 1012.2
20260503010419 60 234 5.2 11.3 0.00 0.00 0.00 72 1012.2
20260503005300 60 246 6.1 11.3 0.00 0.00 0.00 72 1012.2
20260503004800 60 203 6.1 11.3 0.00 0.00 0.00 72 1012.2
20260503004300 60 215 5.2 11.3 0.00 0.00 0.00 71 1012.2
20260503003801 61 185 5.2 13.0 0.00 0.00 0.00 71 1012.2
20260503003252 61 269 5.2 13.0 0.00 0.00 0.00 71 1012.2
20260503002759 61 209 4.3 8.7 0.00 0.00 0.00 70 1012.2
20260503002752 61 222 4.3 11.3 0.00 0.00 0.00 70 1012.2
20260503001758 61 196 6.1 12.2 0.00 0.00 0.00 68 1012.2
20260503001752 62 245 5.2 12.2 0.00 0.00 0.00 70 1012.2
20260503000749 62 293 5.2 11.3 0.00 0.00 0.00 68 1012.2
20260503000259 62 321 5.2 13.9 0.00 0.00 0.00 68 1012.2
20260502235748 62 207 4.3 13.9 0.00 0.00 0.00 67 1012.2
20260502235248 63 213 4.3 12.2 0.00 0.00 0.00 66 1012.2
20260502234746 64 253 4.3 12.2 0.00 0.00 0.00 67 1012.3
20260502234247 63 247 5.2 10.4 0.00 0.00 0.00 67 1012.3
20260502233747 63 239 5.2 11.3 0.00 0.00 0.00 68 1012.3
20260502233244 64 207 5.2 16.5 0.00 0.00 0.00 68 1012.5
20260502232743 63 208 6.1 16.5 0.00 0.00 0.00 68 1012.5
20260502232244 62 238 7.0 15.6 0.00 0.00 0.00 70 1012.5
20260502231741 62 243 7.8 15.6 0.00 0.00 0.00 70 1012.7
20260502231242 62 218 7.8 15.6 0.00 0.00 0.00 70 1012.7
20260502230750 62 245 7.0 17.4 0.00 0.00 0.00 69 1012.8
20260502230742 62 240 7.0 17.4 0.00 0.00 0.00 69 1012.7
20260502225740 62 229 7.8 15.6 0.00 0.00 0.00 69 1012.8
20260502224738 62 221 6.1 13.9 0.00 0.00 0.00 68 1012.9
20260502224245 63 278 7.0 13.0 0.00 0.00 0.00 69 1012.9
20260502224238 63 216 6.1 13.0 0.00 0.00 0.00 68 1012.9
20260502223239 62 236 7.8 14.8 0.00 0.00 0.00 71 1013.2
20260502222740 62 248 8.7 16.5 0.00 0.00 0.00 70 1013.2
20260502222246 63 224 7.8 16.5 0.00 0.00 0.00 69 1013.2
20260502222239 62 231 7.8 16.5 0.00 0.00 0.00 69 1013.2
20260502221241 63 287 6.1 15.6 0.00 0.00 0.00 68 1013.2
20260502220738 64 232 4.3 14.8 0.00 0.00 0.00 68 1013.2
20260502220240 64 307 4.3 12.2 0.00 0.00 0.00 69 1013.5
20260502215740 64 217 6.1 14.8 0.00 0.00 0.00 70 1013.5
20260502215246 63 215 7.0 18.2 0.00 0.00 0.00 69 1013.5
20260502215240 63 160 7.8 16.5 0.00 0.00 0.00 71 1013.5
20260502214236 63 176 6.1 18.2 0.00 0.00 0.00 69 1013.5
20260502213735 63 169 6.1 13.9 0.00 0.00 0.00 69 1013.5
20260502213236 62 297 6.1 13.9 0.00 0.00 0.00 70 1013.6
20260502212746 62 280 7.8 15.6 0.00 0.00 0.00 71 1013.6
20260502212736 62 209 7.0 15.6 0.00 0.00 0.00 70 1013.6
20260502211734 62 218 7.8 16.5 0.00 0.00 0.00 71 1013.6
20260502211234 62 217 7.0 16.5 0.00 0.00 0.00 70 1013.6